Weather in Totonicapán

Guatemala     14°54′42″N   91°21′35″W
temp.,
°C
wind,
m/s
gust,
m/s
humid.,
%
clouds,
%
prec.,
mm/h
press.,
hPa
HPBL,
m
15 april, thu
thu1500:00+14sw118959 1.8 101711
03:00+13sw1187100 0.0 101614
06:00+13sw118499 0.0 101711
09:00+19ne115646 0.0 1016949
12:00+23ne324495 0.3 10132105
15:00+19sse225969 1.3 1012597
18:00+17e237222 3.2 101263
21:00+14sse228812 0.8 101623
16 april, fri
fri1600:00+13s118954 0.8 101612
03:00+12wsw219078 0.0 101515
06:00+12sw1189100 0.0 101511
09:00+20ene015594 0.0 1014903
12:00+25ene223640 0.1 10102518
15:00+19sse4465100 1.7 1010613
18:00+17sse227646 4.6 101265
21:00+15ssw218623 0.3 101528
17 april, sat
sat1700:00+14ssw218751 0.3 101522
03:00+13sw118938 0.1 101424
06:00+13sw1189100 0.2 101511
09:00+20ese115911 0.0 10141026
12:00+23s1150100 0.6 10121748
15:00+20s226385 1.2 1011860
18:00+15wsw0190100 8.8 101474
21:00+14ssw1192100 1.6 101616
18 april, sun
sun1800:00+13sw2187100 1.6 101617
03:00+13sw2183100 0.0 101516
06:00+12wsw118333 0.0 101614
09:00+19ne226179 0.0 1016929
12:00+21e335692 1.3 10141461
15:00+20e336189 3.2 10121140
18:00+16ene128027 5.8 101431
21:00+15ese118571 0.8 101615
19 april, mon
mon1900:00+15e118474 2.9 101620
03:00+14ene129199 2.4 101657
06:00+13n019326 2.6 101726
09:00+18ene116379 0.1 1017724
12:00+23ene3345100 0.3 10131924
15:00+20ese2457100 0.9 1011670
18:00+16ese3579100 2.1 1013425
21:00+14e1192100 1.2 101627